Location: Navalmoral
(40.4603°N, 4.7686°W)
Time: 03:48:21
(UTC+00:00)

ASTRO E2 - Pass Details

Date: 05 August 2024
Orbit: 396 x 402 km, 31.4° (Epoch: 10 September)

Event Time Altitude Azimuth Distance (km) Brightness Sun altitude
Rises 20:19:51 0° 246° (WSW) 2,317 6.5 -9.4°
Reaches altitude 10° 20:22:29 10° 225° (SW) 1,448 5.1 -9.9°
Maximum altitude 20:24:41 17° 183° (S) 1,108 4.1 -10.2°
Enters shadow 20:26:09 13° 152° (SSE) 1,268 4.2 -10.5°
